Location: Maccacari
(45.1333°N, 11.1333°E)
Time: 02:23:17
(UTC+00:00)

Altair - Pass Details

Date: 01 February 2021
Orbit: 1501 x 1682 km, 47.2° (Epoch: 01 March)

Event Time Altitude Azimuth Distance (km) Brightness Sun altitude
Rises 03:43:04 0° 253° (WSW) 4,831 - -30.6°
Reaches altitude 10° 03:46:08 10° 254° (WSW) 3,868 - -30.0°
Exits shadow 03:53:05 52° 258° (WSW) 1,988 7.6 -28.8°
Maximum altitude 03:56:09 88° 344° (NNW) 1,675 7.5 -28.3°
Drops below altitude 10° 04:06:23 10° 76° (ENE) 3,949 10.6 -26.5°
Sets 04:09:34 0° 77° (ENE) 4,936 11.4 -25.9°
